DAL665 KSEA-KSLC

Flight info

Callsign DAL665
Flight time N/A
Altitude 39000
Route SUMMA2 SUMMA WANTA Q154 BYI SKEES6
Aircraft B752/M-SDE3FGHIM3RWXY/LB1

Departure

Time 2026-05-06 04:56
Airport Seattle–Tacoma International Airport (KSEA)

Arrival

Time N/A
Airport Salt Lake City International Airport (KSLC)
Time Latitude Longitude Altitude Speed Heading
2026-05-06 04:18 47.43839 -122.29855 386 ft 0 kts 73°
2026-05-06 04:44 47.43838 -122.29856 386 ft 1 kts 73°
2026-05-06 04:44 47.43834 -122.29877 386 ft 2 kts 74°
2026-05-06 04:44 47.43830 -122.29898 386 ft 2 kts 74°
2026-05-06 04:45 47.43825 -122.29919 385 ft 2 kts 74°
2026-05-06 04:45 47.43821 -122.29941 385 ft 2 kts 74°
2026-05-06 04:45 47.43816 -122.29962 385 ft 2 kts 74°
2026-05-06 04:45 47.43810 -122.29982 385 ft 2 kts 46°
2026-05-06 04:46 47.43798 -122.29994 384 ft 2 kts 19°
2026-05-06 04:46 47.43787 -122.29999 384 ft 0 kts 15°
2026-05-06 04:46 47.43785 -122.29999 383 ft 0 kts 17°
2026-05-06 04:48 47.43807 -122.29990 385 ft 5 kts 17°
2026-05-06 04:49 47.43851 -122.29970 387 ft 8 kts 19°
2026-05-06 04:49 47.43923 -122.29954 387 ft 11 kts 353°
2026-05-06 04:49 47.43984 -122.30021 387 ft 11 kts 314°
2026-05-06 04:49 47.44037 -122.30115 386 ft 11 kts 299°
2026-05-06 04:50 47.44040 -122.30224 387 ft 10 kts 237°
2026-05-06 04:50 47.43998 -122.30316 387 ft 10 kts 245°
2026-05-06 04:50 47.43988 -122.30428 387 ft 11 kts 271°
2026-05-06 04:50 47.43990 -122.30553 382 ft 12 kts 271°
2026-05-06 04:51 47.44011 -122.30628 378 ft 7 kts 332°
2026-05-06 04:51 47.44085 -122.30637 380 ft 12 kts
2026-05-06 04:51 47.44190 -122.30635 384 ft 17 kts
2026-05-06 04:51 47.44334 -122.30634 388 ft 23 kts
2026-05-06 04:52 47.44499 -122.30631 393 ft 23 kts
2026-05-06 04:52 47.44651 -122.30630 397 ft 21 kts
2026-05-06 04:52 47.44788 -122.30627 403 ft 18 kts
2026-05-06 04:52 47.44906 -122.30625 408 ft 16 kts
2026-05-06 04:53 47.45039 -122.30624 414 ft 22 kts
2026-05-06 04:53 47.45208 -122.30622 420 ft 24 kts
2026-05-06 04:53 47.45367 -122.30621 428 ft 21 kts
2026-05-06 04:53 47.45510 -122.30621 430 ft 20 kts
2026-05-06 04:54 47.45658 -122.30621 431 ft 18 kts 355°
2026-05-06 04:54 47.45788 -122.30620 432 ft 22 kts
2026-05-06 04:54 47.45945 -122.30617 433 ft 19 kts
2026-05-06 04:54 47.46092 -122.30615 433 ft 21 kts
2026-05-06 04:55 47.46229 -122.30614 435 ft 12 kts
2026-05-06 04:55 47.46315 -122.30612 435 ft 10 kts 360°
2026-05-06 04:55 47.46377 -122.30691 429 ft 17 kts 270°
2026-05-06 04:55 47.46282 -122.30778 435 ft 26 kts 181°
2026-05-06 04:56 47.45913 -122.30781 430 ft 84 kts 180°
2026-05-06 04:56 47.45126 -122.30788 419 ft 142 kts 180°
2026-05-06 04:56 47.44010 -122.30797 794 ft 162 kts 181°
2026-05-06 04:56 47.42915 -122.30798 1540 ft 165 kts 180°
2026-05-06 04:57 47.41642 -122.30750 1859 ft 197 kts 178°
2026-05-06 04:57 47.40207 -122.30653 2525 ft 214 kts 178°
2026-05-06 04:57 47.38670 -122.30641 3140 ft 234 kts 181°
2026-05-06 04:57 47.37019 -122.30713 3997 ft 242 kts 186°
2026-05-06 04:58 47.35318 -122.31094 4623 ft 256 kts 188°
2026-05-06 04:58 47.33560 -122.31307 5471 ft 260 kts 183°
2026-05-06 04:58 47.31719 -122.31352 6246 ft 267 kts 180°
2026-05-06 04:58 47.29824 -122.31290 6955 ft 276 kts 179°
2026-05-06 04:59 47.27937 -122.31162 7913 ft 273 kts 178°
2026-05-06 04:59 47.26015 -122.31000 8657 ft 280 kts 177°
2026-05-06 04:59 47.24112 -122.30552 9498 ft 282 kts 164°
2026-05-06 04:59 47.22216 -122.29707 10213 ft 288 kts 163°
2026-05-06 05:00 47.20318 -122.28817 10957 ft 293 kts 162°
2026-05-06 05:00 47.18375 -122.27866 11683 ft 297 kts 161°
2026-05-06 05:00 47.16412 -122.26881 12192 ft 310 kts 161°
2026-05-06 05:00 47.14280 -122.25797 12511 ft 331 kts 160°
2026-05-06 05:01 47.12051 -122.24658 12831 ft 351 kts 160°
2026-05-06 05:01 47.09691 -122.23448 13143 ft 370 kts 160°
2026-05-06 05:01 47.07238 -122.22189 13859 ft 375 kts 160°
2026-05-06 05:01 47.04750 -122.20911 14539 ft 381 kts 160°
2026-05-06 05:02 47.02255 -122.19628 15285 ft 384 kts 160°
2026-05-06 05:02 46.99692 -122.18310 15944 ft 389 kts 160°
2026-05-06 05:02 46.97117 -122.16988 16647 ft 393 kts 160°
2026-05-06 05:02 46.94528 -122.15656 17293 ft 397 kts 161°
2026-05-06 05:03 46.91936 -122.14323 17944 ft 401 kts 161°
2026-05-06 05:03 46.89298 -122.12969 18575 ft 405 kts 161°
2026-05-06 05:03 46.86615 -122.11591 19216 ft 409 kts 160°
2026-05-06 05:03 46.83943 -122.10219 19832 ft 413 kts 160°
2026-05-06 05:04 46.81200 -122.08810 20469 ft 417 kts 160°
2026-05-06 05:04 46.78445 -122.07394 21062 ft 422 kts 160°
2026-05-06 05:04 46.75682 -122.05975 21676 ft 425 kts 160°
2026-05-06 05:04 46.72913 -122.04554 22228 ft 429 kts 160°
2026-05-06 05:05 46.70057 -122.03088 22799 ft 433 kts 160°
2026-05-06 05:05 46.67221 -122.01578 23352 ft 437 kts 156°
2026-05-06 05:05 46.64537 -121.99526 23888 ft 438 kts 145°
2026-05-06 05:05 46.62139 -121.96827 24461 ft 438 kts 135°
2026-05-06 05:06 46.60092 -121.93583 24889 ft 440 kts 124°
2026-05-06 05:06 46.58406 -121.89867 25420 ft 439 kts 118°
2026-05-06 05:06 46.56847 -121.86086 25933 ft 442 kts 117°
2026-05-06 05:06 46.55274 -121.82225 26378 ft 446 kts 117°
2026-05-06 05:07 46.53708 -121.78338 26877 ft 448 kts 116°
2026-05-06 05:07 46.52138 -121.74417 27350 ft 450 kts 116°
2026-05-06 05:07 46.50553 -121.70449 27762 ft 454 kts 116°
2026-05-06 05:07 46.48983 -121.66520 28243 ft 456 kts 116°
2026-05-06 05:08 46.47397 -121.62554 28662 ft 459 kts 117°
2026-05-06 05:08 46.45702 -121.58552 29102 ft 462 kts 118°
2026-05-06 05:08 46.44016 -121.54622 29496 ft 464 kts 118°
2026-05-06 05:08 46.42321 -121.50663 29888 ft 467 kts 118°
2026-05-06 05:09 46.40599 -121.46651 30246 ft 470 kts 118°
2026-05-06 05:09 46.38866 -121.42613 30592 ft 473 kts 118°
2026-05-06 05:09 46.37119 -121.38551 30951 ft 475 kts 118°
2026-05-06 05:09 46.35379 -121.34513 31393 ft 474 kts 118°
2026-05-06 05:10 46.33620 -121.30434 31827 ft 474 kts 118°
2026-05-06 05:10 46.31879 -121.26400 32233 ft 475 kts 118°
2026-05-06 05:10 46.30141 -121.22382 32691 ft 473 kts 118°
2026-05-06 05:10 46.28406 -121.18376 33083 ft 473 kts 118°
2026-05-06 05:11 46.26727 -121.14503 33471 ft 473 kts 118°
2026-05-06 05:11 46.24984 -121.10490 33899 ft 472 kts 118°
2026-05-06 05:11 46.23251 -121.06506 34290 ft 472 kts 118°
2026-05-06 05:11 46.21502 -121.02488 34699 ft 472 kts 118°
2026-05-06 05:12 46.19754 -120.98482 35117 ft 472 kts 118°
2026-05-06 05:12 46.18023 -120.94517 35558 ft 470 kts 118°
2026-05-06 05:12 46.16286 -120.90547 35917 ft 471 kts 118°
2026-05-06 05:12 46.14533 -120.86544 36339 ft 469 kts 118°
2026-05-06 05:13 46.12788 -120.82567 36635 ft 470 kts 117°
2026-05-06 05:13 46.11061 -120.78634 36901 ft 470 kts 117°
2026-05-06 05:13 46.09301 -120.74634 37204 ft 470 kts 117°
2026-05-06 05:13 46.07560 -120.70679 37477 ft 469 kts 117°
2026-05-06 05:14 46.05815 -120.66723 37668 ft 471 kts 117°
2026-05-06 05:14 46.04040 -120.62703 37904 ft 471 kts 117°
2026-05-06 05:14 46.02287 -120.58746 38231 ft 469 kts 117°
2026-05-06 05:15 45.98798 -120.50873 38620 ft 469 kts 117°
2026-05-06 05:15 45.97025 -120.46884 38728 ft 471 kts 117°
2026-05-06 05:15 45.95248 -120.42887 38909 ft 471 kts 117°
2026-05-06 05:16 45.91744 -120.35033 38983 ft 460 kts 117°
2026-05-06 05:16 45.88284 -120.27286 38949 ft 464 kts 117°
2026-05-06 05:17 45.84860 -120.19650 38948 ft 467 kts 117°
2026-05-06 05:17 45.81335 -120.11808 38924 ft 469 kts 117°
2026-05-06 05:18 45.78376 -120.05243 38913 ft 470 kts 117°
2026-05-06 05:18 45.74815 -119.97362 38896 ft 470 kts 117°
2026-05-06 05:19 45.71349 -119.89713 38897 ft 469 kts 117°
2026-05-06 05:19 45.67813 -119.81931 38925 ft 467 kts 117°
2026-05-06 05:20 45.64274 -119.74163 38928 ft 468 kts 117°
2026-05-06 05:20 45.60722 -119.66385 38928 ft 469 kts 117°
2026-05-06 05:21 45.57161 -119.58614 38953 ft 467 kts 116°
2026-05-06 05:21 45.53585 -119.50831 38957 ft 467 kts 116°
2026-05-06 05:22 45.50037 -119.43127 38979 ft 467 kts 116°
2026-05-06 05:22 45.46464 -119.35391 38998 ft 466 kts 116°
2026-05-06 05:23 45.44180 -119.30459 39005 ft 466 kts 117°
2026-05-06 05:23 45.38823 -119.18919 39019 ft 467 kts 117°
2026-05-06 05:24 45.35244 -119.11236 39032 ft 467 kts 117°
2026-05-06 05:24 45.31640 -119.03522 39040 ft 464 kts 117°
2026-05-06 05:25 45.28087 -118.95931 39050 ft 466 kts 117°
2026-05-06 05:25 45.24490 -118.88274 39071 ft 466 kts 117°
2026-05-06 05:26 45.20884 -118.80615 39075 ft 465 kts 117°
2026-05-06 05:26 45.17279 -118.72980 39079 ft 466 kts 117°
2026-05-06 05:27 45.13680 -118.65379 39075 ft 466 kts 117°
2026-05-06 05:27 45.10077 -118.57787 39079 ft 466 kts 117°
2026-05-06 05:28 45.06468 -118.50206 39080 ft 465 kts 116°
2026-05-06 05:28 45.02810 -118.42540 39101 ft 464 kts 117°
2026-05-06 05:29 44.99170 -118.35006 39124 ft 467 kts 119°
2026-05-06 05:29 44.95235 -118.27648 39119 ft 470 kts 120°
2026-05-06 05:30 44.91292 -118.20306 39118 ft 470 kts 120°
2026-05-06 05:30 44.87345 -118.12982 39081 ft 467 kts 120°
2026-05-06 05:31 44.83387 -118.05656 39073 ft 470 kts 120°
2026-05-06 05:31 44.79424 -117.98342 39071 ft 470 kts 120°
2026-05-06 05:32 44.75480 -117.91080 39068 ft 469 kts 120°
2026-05-06 05:32 44.71509 -117.83788 39063 ft 471 kts 120°
2026-05-06 05:33 44.67544 -117.76527 39048 ft 469 kts 120°
2026-05-06 05:33 44.63551 -117.69228 39048 ft 471 kts 120°
2026-05-06 05:34 44.59550 -117.61938 39044 ft 471 kts 120°
2026-05-06 05:34 44.55571 -117.54706 39035 ft 468 kts 120°
2026-05-06 05:35 44.51504 -117.47329 39042 ft 470 kts 120°
2026-05-06 05:35 44.47513 -117.40110 39037 ft 471 kts 120°
2026-05-06 05:36 44.43505 -117.32881 39018 ft 470 kts 120°
2026-05-06 05:36 44.39487 -117.25651 39011 ft 470 kts 120°
2026-05-06 05:37 44.35484 -117.18407 39011 ft 467 kts 117°
2026-05-06 05:37 44.31888 -117.10984 39004 ft 465 kts 116°
2026-05-06 05:38 44.28246 -117.03498 38994 ft 468 kts 116°
2026-05-06 05:38 44.24604 -116.96049 38970 ft 464 kts 116°
2026-05-06 05:39 44.20945 -116.88580 38982 ft 466 kts 116°
2026-05-06 05:39 44.17289 -116.81139 38979 ft 467 kts 116°
2026-05-06 05:40 44.13626 -116.73708 38972 ft 465 kts 116°
2026-05-06 05:40 44.09969 -116.66303 38984 ft 467 kts 116°
2026-05-06 05:41 44.06300 -116.58894 39001 ft 467 kts 116°
2026-05-06 05:41 44.02618 -116.51479 38985 ft 465 kts 116°
2026-05-06 05:42 43.98945 -116.44096 38991 ft 468 kts 116°
2026-05-06 05:42 43.95255 -116.36704 38996 ft 469 kts 116°
2026-05-06 05:43 43.91540 -116.29280 39013 ft 468 kts 117°
2026-05-06 05:43 43.87819 -116.21860 39000 ft 469 kts 117°
2026-05-06 05:44 43.84115 -116.14495 39003 ft 468 kts 117°
2026-05-06 05:44 43.80397 -116.07119 39001 ft 468 kts 117°
2026-05-06 05:45 43.76676 -115.99755 39003 ft 471 kts 117°
2026-05-06 05:45 43.72924 -115.92353 39011 ft 469 kts 117°
2026-05-06 05:46 43.69183 -115.84985 39028 ft 471 kts 117°
2026-05-06 05:46 43.65434 -115.77625 39050 ft 469 kts 117°
2026-05-06 05:47 43.61558 -115.70325 39056 ft 474 kts 118°
2026-05-06 05:47 43.57591 -115.63082 39046 ft 472 kts 118°
2026-05-06 05:48 43.53656 -115.55901 39048 ft 474 kts 118°
2026-05-06 05:48 43.49685 -115.48678 39043 ft 472 kts 118°
2026-05-06 05:49 43.45707 -115.41455 39053 ft 475 kts 118°
2026-05-06 05:49 43.41732 -115.34259 39052 ft 474 kts 119°
2026-05-06 05:50 43.37724 -115.27019 39052 ft 474 kts 119°
2026-05-06 05:50 43.33762 -115.19878 39056 ft 473 kts 118°
2026-05-06 05:51 43.29779 -115.12721 39055 ft 472 kts 118°
2026-05-06 05:51 43.25776 -115.05538 39043 ft 473 kts 118°
2026-05-06 05:52 43.21785 -114.98400 39036 ft 473 kts 118°
2026-05-06 05:52 43.17757 -114.91211 39022 ft 474 kts 118°
2026-05-06 05:53 43.13769 -114.84112 39005 ft 473 kts 118°
2026-05-06 05:53 43.09742 -114.76959 39004 ft 475 kts 118°
2026-05-06 05:54 43.05713 -114.69820 38995 ft 476 kts 118°
2026-05-06 05:54 43.01693 -114.62719 38977 ft 472 kts 118°
2026-05-06 05:55 42.97670 -114.55620 38975 ft 475 kts 118°
2026-05-06 05:55 42.93574 -114.48415 38984 ft 477 kts 118°
2026-05-06 05:56 42.89507 -114.41280 38986 ft 477 kts 118°
2026-05-06 05:56 42.85420 -114.34125 38969 ft 478 kts 119°
2026-05-06 05:57 42.81328 -114.26979 38971 ft 479 kts 120°
2026-05-06 05:57 42.77240 -114.19856 38990 ft 481 kts 120°
2026-05-06 05:58 42.73102 -114.12667 38993 ft 481 kts 120°
2026-05-06 05:58 42.68981 -114.05521 39008 ft 482 kts 119°
2026-05-06 05:59 42.64845 -113.98370 39007 ft 481 kts 119°
2026-05-06 05:59 42.60709 -113.91233 38996 ft 481 kts 120°
2026-05-06 06:00 42.56240 -113.84303 38986 ft 489 kts 127°
2026-05-06 06:00 42.51393 -113.77731 38855 ft 490 kts 128°
2026-05-06 06:01 42.49014 -113.74531 39030 ft 488 kts 127°
2026-05-06 06:01 42.46603 -113.71294 38976 ft 490 kts 128°
2026-05-06 06:01 42.41763 -113.64819 39020 ft 490 kts 128°
2026-05-06 06:02 42.36995 -113.58467 38720 ft 479 kts 127°
2026-05-06 06:02 42.34623 -113.55307 38042 ft 480 kts 127°
2026-05-06 06:02 42.32240 -113.52139 37356 ft 478 kts 127°
2026-05-06 06:03 42.29901 -113.49033 36702 ft 474 kts 127°
2026-05-06 06:03 42.27560 -113.45930 36299 ft 470 kts 127°
2026-05-06 06:03 42.25227 -113.42831 35763 ft 477 kts 127°
2026-05-06 06:03 42.22850 -113.39683 35215 ft 480 kts 127°
2026-05-06 06:04 42.20467 -113.36535 34661 ft 480 kts 126°
2026-05-06 06:04 42.18080 -113.33385 34067 ft 477 kts 127°
2026-05-06 06:04 42.15704 -113.30249 33420 ft 477 kts 127°
2026-05-06 06:04 42.13346 -113.27139 32779 ft 477 kts 128°
2026-05-06 06:05 42.10957 -113.23990 32148 ft 481 kts 128°
2026-05-06 06:05 42.08581 -113.20865 31522 ft 484 kts 128°
2026-05-06 06:05 42.06167 -113.17699 30894 ft 485 kts 128°
2026-05-06 06:05 42.03755 -113.14534 30273 ft 483 kts 128°
2026-05-06 06:06 42.01353 -113.11388 29660 ft 479 kts 129°
2026-05-06 06:06 41.98998 -113.08308 29071 ft 475 kts 128°
2026-05-06 06:06 41.96640 -113.05230 28499 ft 468 kts 129°
2026-05-06 06:06 41.94347 -113.02232 27925 ft 463 kts 129°
2026-05-06 06:07 41.92054 -112.99239 27354 ft 461 kts 129°
2026-05-06 06:07 41.89767 -112.96259 26785 ft 458 kts 129°
2026-05-06 06:07 41.87493 -112.93296 26190 ft 455 kts 129°
2026-05-06 06:07 41.85209 -112.90326 25605 ft 451 kts 129°
2026-05-06 06:08 41.82982 -112.87433 25050 ft 446 kts 129°
2026-05-06 06:08 41.80825 -112.84553 24958 ft 430 kts 129°
2026-05-06 06:08 41.78661 -112.81765 24805 ft 437 kts 130°
2026-05-06 06:08 41.76427 -112.78895 24622 ft 449 kts 130°
2026-05-06 06:09 41.74206 -112.76035 24362 ft 447 kts 130°
2026-05-06 06:09 41.72495 -112.73834 24028 ft 444 kts 130°
2026-05-06 06:09 41.70700 -112.71519 23627 ft 441 kts 130°
2026-05-06 06:09 41.68494 -112.68676 23025 ft 440 kts 130°
2026-05-06 06:10 41.66301 -112.65848 22475 ft 437 kts 130°
2026-05-06 06:10 41.64148 -112.63075 21939 ft 434 kts 130°
2026-05-06 06:10 41.61973 -112.60276 21397 ft 431 kts 131°
2026-05-06 06:10 41.59819 -112.57509 20846 ft 429 kts 131°
2026-05-06 06:11 41.57668 -112.54746 20244 ft 427 kts 131°
2026-05-06 06:11 41.55548 -112.52022 19630 ft 426 kts 131°
2026-05-06 06:11 41.53410 -112.49283 19217 ft 419 kts 132°
2026-05-06 06:11 41.51291 -112.46741 18801 ft 414 kts 135°
2026-05-06 06:12 41.49113 -112.44214 18229 ft 413 kts 135°
2026-05-06 06:12 41.46963 -112.41708 17654 ft 411 kts 135°
2026-05-06 06:12 41.44776 -112.39296 17236 ft 405 kts 143°
2026-05-06 06:12 41.42342 -112.37443 16782 ft 401 kts 152°
2026-05-06 06:13 41.39884 -112.35813 16269 ft 398 kts 152°
2026-05-06 06:13 41.37401 -112.34165 15751 ft 395 kts 153°
2026-05-06 06:13 41.34934 -112.32540 15249 ft 392 kts 153°
2026-05-06 06:13 41.32523 -112.30961 14744 ft 388 kts 153°
2026-05-06 06:14 41.30114 -112.29385 14266 ft 384 kts 153°
2026-05-06 06:14 41.27693 -112.27805 13730 ft 382 kts 154°
2026-05-06 06:14 41.25333 -112.26266 13253 ft 377 kts 153°
2026-05-06 06:14 41.23004 -112.24751 13005 ft 368 kts 153°
2026-05-06 06:15 41.20748 -112.23281 12996 ft 353 kts 153°
2026-05-06 06:15 41.18549 -112.21850 13007 ft 355 kts 153°
2026-05-06 06:15 41.16333 -112.20408 13009 ft 362 kts 153°
2026-05-06 06:15 41.14068 -112.18938 13004 ft 363 kts 153°
2026-05-06 06:16 41.11818 -112.17477 13000 ft 359 kts 153°
2026-05-06 06:16 41.09556 -112.16011 13002 ft 360 kts 153°
2026-05-06 06:16 41.07222 -112.14773 13007 ft 362 kts 166°
2026-05-06 06:16 41.04741 -112.14144 12758 ft 368 kts 172°
2026-05-06 06:17 41.02230 -112.13590 12425 ft 362 kts 171°
2026-05-06 06:17 40.99770 -112.13048 12127 ft 354 kts 171°
2026-05-06 06:17 40.97349 -112.12520 11823 ft 349 kts 171°
2026-05-06 06:17 40.94957 -112.12003 11541 ft 349 kts 171°
2026-05-06 06:18 40.92540 -112.11483 11255 ft 348 kts 171°
2026-05-06 06:18 40.90181 -112.10982 11008 ft 344 kts 172°
2026-05-06 06:18 40.87824 -112.10672 10983 ft 336 kts 176°
2026-05-06 06:18 40.86648 -112.10543 10985 ft 337 kts 175°
2026-05-06 06:19 40.84272 -112.10266 10989 ft 345 kts 175°
2026-05-06 06:19 40.81877 -112.09986 10986 ft 346 kts 176°
2026-05-06 06:19 40.79466 -112.09703 10987 ft 344 kts 176°
2026-05-06 06:19 40.77100 -112.09425 10986 ft 343 kts 175°
2026-05-06 06:20 40.74694 -112.09142 10984 ft 343 kts 175°
2026-05-06 06:20 40.72328 -112.08865 10989 ft 346 kts 175°
2026-05-06 06:20 40.69917 -112.08581 10988 ft 345 kts 175°
2026-05-06 06:20 40.67543 -112.08292 10969 ft 342 kts 175°
2026-05-06 06:21 40.65164 -112.08003 10958 ft 344 kts 175°
2026-05-06 06:21 40.62779 -112.07711 10904 ft 347 kts 175°
2026-05-06 06:21 40.60383 -112.07420 10877 ft 346 kts 175°
2026-05-06 06:21 40.57994 -112.07127 10878 ft 336 kts 175°
2026-05-06 06:22 40.55724 -112.06849 10882 ft 321 kts 175°
2026-05-06 06:22 40.53554 -112.06576 10889 ft 308 kts 174°
2026-05-06 06:22 40.51447 -112.06241 10890 ft 296 kts 173°
2026-05-06 06:22 40.49452 -112.05904 10767 ft 291 kts 174°
2026-05-06 06:23 40.47434 -112.05534 10486 ft 288 kts 166°
2026-05-06 06:23 40.45658 -112.04463 10274 ft 282 kts 138°
2026-05-06 06:23 40.44468 -112.02502 10097 ft 272 kts 109°
2026-05-06 06:23 40.44084 -112.00144 9934 ft 259 kts 84°
2026-05-06 06:24 40.44503 -111.97944 9802 ft 246 kts 54°
2026-05-06 06:24 40.45512 -111.96175 9636 ft 239 kts 46°
2026-05-06 06:24 40.46679 -111.94656 9450 ft 233 kts 27°
2026-05-06 06:24 40.48167 -111.94154 9331 ft 221 kts 356°
2026-05-06 06:25 40.49693 -111.94291 9167 ft 219 kts 355°
2026-05-06 06:25 40.51212 -111.94412 9024 ft 215 kts 355°
2026-05-06 06:25 40.54121 -111.94684 8815 ft 212 kts 354°
2026-05-06 06:26 40.55589 -111.94833 8583 ft 207 kts 354°
2026-05-06 06:26 40.57019 -111.94985 8287 ft 205 kts 354°
2026-05-06 06:26 40.58428 -111.95138 8000 ft 204 kts 354°
2026-05-06 06:26 40.59832 -111.95293 7717 ft 203 kts 354°
2026-05-06 06:27 40.61247 -111.95452 7432 ft 202 kts 354°
2026-05-06 06:27 40.62633 -111.95609 7156 ft 201 kts 354°
2026-05-06 06:27 40.64021 -111.95768 6881 ft 201 kts 355°
2026-05-06 06:27 40.65411 -111.95927 6603 ft 198 kts 355°
2026-05-06 06:28 40.66775 -111.96083 6313 ft 194 kts 354°
2026-05-06 06:28 40.68133 -111.96242 5954 ft 194 kts 354°
2026-05-06 06:28 40.69440 -111.96399 5750 ft 181 kts 354°
2026-05-06 06:28 40.70593 -111.96510 5676 ft 153 kts 356°
2026-05-06 06:29 40.71605 -111.96600 5395 ft 143 kts 353°
2026-05-06 06:29 40.72591 -111.96731 5198 ft 141 kts 353°
2026-05-06 06:29 40.73546 -111.96845 5000 ft 138 kts 353°
2026-05-06 06:29 40.74510 -111.96975 4831 ft 137 kts 353°
2026-05-06 06:30 40.75474 -111.97090 4635 ft 139 kts 354°
2026-05-06 06:30 40.76425 -111.97192 4481 ft 138 kts 355°
2026-05-06 06:30 40.77392 -111.97306 4305 ft 139 kts 354°
2026-05-06 06:30 40.78318 -111.97420 4232 ft 122 kts 354°
2026-05-06 06:31 40.78594 -111.97447 4231 ft 98 kts 355°